Regional Weather Roundup
Issued by NWS

Home | Current Version | Previous Version | Text Only | Print | Product List | Glossary On
Versions: 1 2 3 4 5 6 7 8 9 10 11 12 13 14 15 16 17 18 19 20 21 22 23 24 25 26 27 28 29 30 31 32 33 34 35 36 37 38 39 40 41 42 43 44 45 46 47 48 49 50
000
ASUS43 KBIS 280720
RWRND

NORTH DAKOTA REGIONAL WEATHER ROUNDUP
NATIONAL WEATHER SERVICE BISMARCK ND
200 AM CDT TUE APR 28 2015

NOTE: "FAIR" INDICATES FEW OR NO CLOUDS BELOW 12,000 FEET WITH NO
SIGNIFICANT WEATHER AND/OR OBSTRUCTIONS TO VISIBILITY.


NDZ001>003-009>011-017-280800-
NORTHWEST NORTH DAKOTA

CITY           SKY/WX    TMP DP  RH WIND       PRES   REMARKS
WILLISTON      CLEAR     40  35  83 S3        30.30S
MINOT          CLEAR     41  36  82 SW10      30.28S
MINOT AFB      CLEAR     39  39 100 W12       30.27S
$$

NDZ018>021-031>035-040>046-280800-
SOUTHWEST NORTH DAKOTA

CITY           SKY/WX    TMP DP  RH WIND       PRES   REMARKS
BISMARCK       CLEAR     37  35  92 W6        30.33R
DICKINSON      CLEAR     35  32  88 W6        30.31S
GARRISON         N/A     38  35  89 SW5       30.30S
HETTINGER ARPT CLEAR     31  30  96 NW5       30.34S
$$

NDZ004>008-012>016-024-026-027-054-280800-
NORTHEAST NORTH DAKOTA

CITY           SKY/WX    TMP DP  RH WIND       PRES   REMARKS
GRAND FORKS    MOCLDY    40  39  97 NW5       30.26S
GRND FRKS AFB  FOG       37  37 100 NW5       30.26S VSB 1/4
DEVILS LAKE      N/A     36  32  87 NW6       30.28S VSB 1/2
$$

NDZ022-023-025-028>030-036>039-047>053-280800-
SOUTHEAST NORTH DAKOTA

CITY           SKY/WX    TMP DP  RH WIND       PRES   REMARKS
FARGO          RAIN      48  44  86 N13       30.23F
JAMESTOWN      PTCLDY    42  39  89 NW8       30.27R
$$



USA.gov is the U.S. government's official web portal to all federal, state and local government web resources and services.